Regional Weather Roundup
Issued by NWS

Home | Current Version | Previous Version | Graphics & Text | Print | Product List | Glossary On
Versions: 1 2 3 4 5 6 7 8 9 10 11 12 13 14 15 16 17 18 19 20 21 22 23 24 25 26 27 28 29 30 31 32 33 34 35 36 37 38 39 40 41 42 43 44 45 46 47 48 49 50
000
ASUS43 KMPX 311210
RWRMN
WEATHER ROUNDUP FOR MINNESOTA
NATIONAL WEATHER SERVICE TWIN CITIES/CHANHASSEN MN
700 AM CDT MON AUG 31 2015


NOTE: "FAIR" INDICATES FEW OR NO CLOUDS BELOW 12,000 FEET WITH NO
SIGNIFICANT WEATHER AND/OR OBSTRUCTIONS TO VISIBILITY. N/A MEANS
CURRENT SKY AND/OR WEATHER CONDITIONS ARE NOT AVAILABLE.

MNZ060>063-068>070-311300-
   Twin Cities Metro

CITY           SKY/WX    TMP DP  RH WIND       PRES   REMARKS
TWIN CITIES    CLOUDY    66  64  93 SE6       29.94R FOG
6HR MIN TEMP:  63; 6HR MAX TEMP:  68;

ST PAUL        CLOUDY    65  65 100 SE7       29.94R FOG
CRYSTAL        CLEAR     65  63  93 S7        29.91R FOG
BLAINE         MOCLDY    64  64 100 S6        29.92S FOG
LAKEVILLE      CLOUDY    66  66 100 S5        29.95R FOG
EDEN PRAIRIE   MOCLDY    67  65  93 S10       29.92R FOG
6HR MIN TEMP:  66; 6HR MAX TEMP:  67;

SOUTH ST PAUL  CLOUDY    66  64  95 SE6       29.94R FOG
LAKE ELMO      CLOUDY    64  64 100 S9        29.96R FOG
$$
MNZ001>005-007-008-013>017-022>024-027-028-311300-
   Northwest Minnesota

CITY           SKY/WX    TMP DP  RH WIND       PRES   REMARKS
BEMIDJI        CLEAR     64  58  81 S14       29.75S
HALLOCK        CLOUDY    66  63  88 S10       29.62S
ROSEAU         MOCLDY    64  59  82 S8        29.66F
WARROAD        MOCLDY    64  61  88 S5        29.68S
THIEF RVR FALL CLEAR    N/A N/A N/A S8        29.67S
CROOKSTON      PTCLDY    66  61  82 S12       29.68R
FOSSTON        CLEAR     64  55  72 S9        29.72R
DETROIT LAKES  CLEAR     68  57  68 S14       29.75S
MOORHEAD       CLEAR     66  61  82 S16       29.69R
PARK RAPIDS    PTCLDY    64  59  83 S13G24    29.78S
MAHNOMEN       FAIR      66  58  74 S12G20    29.70S
$$
MNZ006-009>011-018-025>026-311300-
   North Central Minnesota

CITY           SKY/WX    TMP DP  RH WIND       PRES   REMARKS
BAUDETTE       PTCLDY    63  59  87 S7        29.70R
FLAG ISLAND    PTCLDY    68  63  83 S8        29.66S
INTL FALLS     CLEAR     64  61  90 VRB6      29.74S
6HR MIN TEMP:  64; 6HR MAX TEMP:  69;

WASKISH        CLEAR     64  61  88 S5        29.72S
BIG FORK       CLEAR     64  61  88 S8        29.79S
LONGVILLE      CLEAR     63  61  94 S8        29.82S
GRAND RAPIDS     N/A     63  59  88 S14       29.84R
CRANE LAKE     PTCLDY    63  61  94 S6        29.80S
ORR            CLEAR     63  57  82 S8        29.78S
COOK           CLEAR     63  61  94 S5        29.83S
WALKER         FAIR      64  59  83 S9G20     29.78S
$$
MNZ012-019>021-037-311300-
   Northeast Minnesota

CITY           SKY/WX    TMP DP  RH WIND       PRES   REMARKS
DULUTH         MOCLDY    64  62  93 S13       29.89R FOG
6HR MIN TEMP:  64; 6HR MAX TEMP:  67;

ELY            CLEAR     63  57  82 S6        29.85S
HIBBING        FOG       58  57  97 SE6       29.86R VSB 1/4
EVELETH        FOG       54  54 100 CALM      29.87S VSB<1/4
DULUTH HARBOR  CLEAR     64  63  94 CALM      29.89R FOG
TWO HARBORS    CLOUDY    68  63  83 SW5       29.88R HAZE
SILVER BAY     CLOUDY    66  63  88 S8        29.88R
GRAND MARAIS     N/A     57  56  96 CALM      29.89R
G MARAIS ARPRT DRZL/FOG  63  59  88 S5        29.93R VSB 1/4
$$
MNZ029>031-032-039>041-046>048-054>057-064-311300-
   West Central Minnesota

CITY           SKY/WX    TMP DP  RH WIND       PRES   REMARKS
FERGUS FALLS   CLEAR     66  57  72 S16G23    29.73S
WHEATON        CLEAR     63  57  82 SE15      29.75S
MORRIS         CLEAR     63  63 100 S13       29.79R FOG
ALEXANDRIA     CLEAR     65  62  90 S13       29.84S
ELBOW LAKE     FAIR      64  60  87 SE18      29.77S
WADENA         CLEAR     63  61  94 S8        29.80S FOG
GLENWOOD       CLEAR     63  63 100 S8        29.85S FOG
APPLETON       CLEAR     66  63  88 S8        29.80S
BENSON         CLEAR     63  61  94 S9        29.82S FOG
ORTONVILLE     CLEAR     63  59  88 SE7       29.78S
MADISON        CLEAR     64  63  94 S6        29.81R
WILLMAR        FAIR      64  63  94 SE7       29.88R FOG
$$
MNZ033>034-036-042>043-049>051-058-059-311300-
   Central Minnesota

CITY           SKY/WX    TMP DP  RH WIND       PRES   REMARKS
ST CLOUD       PTCLDY    64  64 100 S9        29.88S FOG
6HR MIN TEMP:  64; 6HR MAX TEMP:  66;

SAUK CENTRE    FAIR      63  62  97 SE5       29.85S FOG
PAYNESVILLE    PTCLDY    64  64  97 SE9       29.88R FOG
AITKIN         CLEAR     64  59  82 S8        29.84S HAZE
PINE RIVER     CLEAR     63  63 100 SE7       29.86S FOG
BRAINERD       PTCLDY    63  62  97 S9        29.85S FOG
STAPLES        CLEAR     63  61  94 S12       29.82S FOG
LONG PRAIRIE   FAIR      61  61 100 SE9       29.84F FOG
LITTLE FALLS     N/A     63  61  94 SE7       29.86S FOG
LITCHFIELD     PTCLDY    66  66 100 S5        29.89S FOG
BUFFALO        PTCLDY    64  61  91 S5        29.91F FOG
MAPLE LAKE     MOCLDY    66  64  96 S6        29.90S FOG
$$
MNZ037-044-045-052-053-311300-
   East Central Minnesota

CITY           SKY/WX    TMP DP  RH WIND       PRES   REMARKS
PRINCETON      CLOUDY    66  64  94 S6        29.90S FOG
MORA           CLOUDY    64  63  94 S8        29.92R
CAMBRIDGE      CLOUDY    68  61  77 S8        29.89S HAZE
RUSH CITY      CLOUDY    65  63  95 S6        29.92R
MOOSE LAKE     CLOUDY    64  61  88 S9G16     29.88R
HINCKLEY       CLOUDY    66  64  94 S7        29.91S FOG
CLOQUET        CLOUDY    64  61  88 S8        29.89R
MCGREGOR       CLEAR     63  61  94 S8        29.87S
$$
MNZ071>073-080-081-089-090-097-098-311300-
   Southwest Minnesota

CITY           SKY/WX    TMP DP  RH WIND       PRES   REMARKS
MONTEVIDEO     CLEAR     63  63 100 SW9       29.85S FOG
GRANITE FALLS  PTCLDY    64  63  97 SE7       29.87S FOG
CANBY          CLEAR     68  63  82 SW14G25   29.81R
MARSHALL       CLEAR     66  61  82 SW24G32   29.85S
REDWOOD FALLS  CLEAR     64  62  93 S8        29.88S FOG
OLIVIA         CLEAR     59  59 100 S8        29.88R FOG
PIPESTONE      CLEAR     64  63  94 S13       29.90F FOG
WINDOM         CLEAR     66  64  94 S9        29.92F
WORTHINGTON    CLEAR     64  61  88 S14       29.93S
JACKSON        CLEAR     64  64 100 S12       29.95S FOG
TRACY          CLEAR     68  65  91 SW21G28   29.88R
SLAYTON        CLEAR     65  65 100 S12       29.92S FOG
$$
MNZ065>067-074>077-082>085-091>093-311300-
   South Central Minnesota

CITY           SKY/WX    TMP DP  RH WIND       PRES   REMARKS
MANKATO        CLOUDY    66  64  94 S9        29.94R
NEW ULM        CLEAR     64  63  94 S10       29.91S FOG
ST JAMES       CLEAR     66  64  94 S8        29.93S FOG
FAIRMONT       PTCLDY    64  61  88 S10       29.94S
GLENCOE        PTCLDY    64  64 100 S5        29.91S FOG
FARIBAULT      CLEAR     64  64 100 S7        29.96R FOG
OWATONNA       PTCLDY    66  64  94 S10       29.96S FOG
WASECA         CLOUDY    64  63  94 S8        29.97R FOG
ALBERT LEA     FOG       66  66 100 S6        29.98S VSB 3/4
$$
MNZ078>079-086>088-094>096-311300-
   Southeast Minnesota

CITY           SKY/WX    TMP DP  RH WIND       PRES   REMARKS
ROCHESTER      FOG       65  65 100 S13       30.01S VSB 1/4
6HR MIN TEMP:  60; 6HR MAX TEMP:  66;

RED WING       CLOUDY    66  64  94 SE5       29.96S FOG
STANTON        CLOUDY    67  65  91 S6        29.94S FOG
DODGE CENTER   FOG       64  64 100 S6        29.99R VSB 1/2
WINONA         CLOUDY    66  64  94 CALM      30.00R FOG
PRESTON        FOG       64  63  96 S6        30.02R VSB 1/4
$$
ABBREVIATIONS USED IN REMARKS
   TC - TEMPERATURES IN CELSIUS
  WCI - WIND CHILL INDEX
   HX - HEAT INDEX
  VSB - VISIBILITY
$$


USA.gov is the U.S. government's official web portal to all federal, state and local government web resources and services.